Location: Écuvilly
(49.6505°N, 2.9206°E)
Time: 17:43:44
(UTC+00:00)

Cosmos 2058 - Pass Details

Date: 17 November 2025
Orbit: 529 x 540 km, 82.5° (Epoch: 08 December)

Event Time Altitude Azimuth Distance (km) Brightness Sun altitude
Rises 17:36:23 0° 352° (N) 2,705 6.3 -15.0°
Reaches altitude 10° 17:38:34 10° 355° (N) 1,811 5.4 -15.3°
Maximum altitude 17:42:32 66° 78° (ENE) 594 2.7 -15.9°
Drops below altitude 10° 17:46:28 10° 162° (SSE) 1,801 5.4 -16.6°
Sets 17:48:38 0° 165° (SSE) 2,690 6.3 -16.9°
